User: anonymous   Login
Location: Caltech
(34.1382°N, 118.1253°W)
Time: 07:34:16
(UTC-07:00)
Language:

Cosmos 2322 - Orbit

View from above orbital plane
View from above orbital plane
View from above satellite
View from above satellite

Ground track
Ground track

The orbit data is extracted from the following two-line orbital elements,

1 23704U 95058A   15141.47729738  .00000357  00000-0  21534-3 0  9995
2 23704 070.9858 191.8531 0009250 169.8565 285.9178 14.13319726  8789
Epoch (UTC): 21 May 2015 11:27:18
Eccentricity: 0.0009250
inclination: 70.9858°
perigee height: 841 km
apogee height: 855 km
right ascension of ascending node: 191.8531°
argument of perigee: 169.8565°
revolutions per day: 14.13319726
mean anomaly at epoch: 285.9178°
orbit number at epoch: 878

The dashed part of the orbit path shows where the satellite is in the earth's shadow,  

DLR